User: anonymous   Login
Location: Zagreb
(45.8000°N, 16.0000°E)
Time: 08:10:45
(UTC+01:00)
Language:

Vanguard 1 - Orbit

View from above orbital plane
View from above orbital plane
View from above satellite
View from above satellite

Ground track
Ground track

The orbit data is extracted from the following two-line orbital elements,

1     5U 58002B   20299.90338779 -.00000028 +00000-0 -57554-4 0  9990
2     5 034.2515 186.3926 1846516 219.4309 125.6453 10.84869138219423
Epoch (UTC): 25 October 2020 21:40:52
Eccentricity: 0.1846516
inclination: 34.2515°
perigee height: 650 km
apogee height: 3833 km
right ascension of ascending node: 186.3926°
argument of perigee: 219.4309°
revolutions per day: 10.84869138
mean anomaly at epoch: 125.6453°
orbit number at epoch: 21942

The dashed part of the orbit path shows where the satellite is in the earth's shadow,  

DLR